Other Public Products
Issued by NWS Grand Forks, ND

Home | Current Version | Previous Version | Graphics & Text | Print | Product List | Glossary On
Versions: 1 2 3 4 5 6 7 8 9 10 11 12 13 14 15 16 17 18 19 20 21 22 23 24 25 26 27 28 29 30 31 32 33 34 35 36 37 38 39 40 41 42 43 44 45 46 47 48 49 50
000
FPUS83 KFGF 241910
OPUFGF
NATIONAL WEATHER SERVICE EASTERN NORTH DAKOTA/GRAND FORKS ND
200 PM CDT SUN MAY 24 2015

 **SATELLITE DATA USED TO AUGMENT SKY COVER AT AUTOMATED STATIONS**
 *****  WEATHER ACROSS EASTERN NORTH DAKOTA  *****

CITY           SKY/WX    TMP DP  RH WIND       PRES   REMARKS
GRAND FORKS    CLOUDY    75  48  38 SE7       29.98F
GRAND FORKS AF CLOUDY    74  48  40 SE9       29.98F
GRAND CITY NWS   N/A     70 N/A N/A E18         N/A
BUXTON         NOT AVBL
DEVILS LAKE    PTSUNNY   72  46  40 SE7G18    29.99S
FARGO          CLOUDY    69  51  52 E15       29.97F
WAHPETON ARPT  CLOUDY    66  48  52 E8        29.96F
$$

 *****  WEATHER ACROSS CENTRAL AND WESTERN NORTH DAKOTA  *****

CITY           SKY/WX    TMP DP  RH WIND       PRES   REMARKS
JAMESTOWN      CLOUDY    69  49  48 E10G21    29.96F
BISMARCK       CLOUDY    67  49  52 E14       29.98F
MINOT          MOSUNNY   74  43  32 NE15G21   29.98F
MINOT AFB      SUNNY     75  44  32 E10G20    29.97F
GARRISON         N/A     69  49  48 E10       29.99F
WILLISTON      SUNNY     75  40  28 E16G25    29.99F
DICKINSON      CLOUDY    63  50  62 E9        29.98F
HETTINGER      LGT RAIN  59  50  72 E13       29.99F
$$

 *****  OTHER OBSERVATIONS NORTHEAST NORTH DAKOTA  *****

CITY           SKY/WX    TMP DP  RH WIND       PRES   REMARKS
WALHALLA         N/A     75  43  31 E7        29.98F
LANGDON        FAIR      77  41  27 SE14      30.01S
CAVALIER       FAIR      77  39  25 E7        29.98F
GRAFTON        FAIR      75  46  35 SE10      29.99F
CANDO          FAIR      75  39  27 SE8G22    29.99F
FORT TOTTEN      N/A     72  46  40 E8        29.95
ROLLA            N/A     73  34  23 NE7G21    30.00F
RUGBY          NOT AVBL
 ***** THE ABOVE OBSERVATIONS ARE NON NWS ARE NOT QUALITY
        CONTROLLED AND MAY MIS-REPORT RAIN FOR SNOW...
$$

 *****  OTHER OBSERVATIONS SOUTHEAST NORTH DAKOTA *****

CITY           SKY/WX    TMP DP  RH WIND       PRES   REMARKS
COOPERSTOWN    NOT AVBL
VALLEY CITY    FAIR      70  48  46 SE18G25   29.97F
OAKES            N/A     64  54  68 E17       29.95F
GWINNER        NOT AVBL
SHEYENNE NWR     N/A     68  51  55 E14       29.95S
BUFFALO        NOT AVBL
WYNDMERE         N/A     64  52  63 E7          N/A
 ***** THE ABOVE OBSERVATIONS ARE NON NWS ARE NOT QUALITY
       CONTROLLED AND MAY MIS-REPORT RAIN FOR SNOW...
$$

  *****  WEATHER ACROSS NORTHERN MINNESOTA  *****

CITY           SKY/WX    TMP DP  RH WIND       PRES   REMARKS
FLAG ISLAND    SUNNY     63  54  72 S7        29.98F
WARROAD        MOSUNNY   75  46  35 E6        30.00F
ROSEAU         MOSUNNY   79  39  24 CALM      29.99F
HALLOCK        PTSUNNY   77  39  25 E5        29.98F
THF RVR FALLS  PTSUNNY   73  45  35 SE10      30.00F
HALSTAD        NOT AVBL
FOSSTON        CLOUDY    70  46  43 E6        30.02F
BAUDETTE       MOSUNNY   77  40  26 CALM      30.00F
WASKISH        PTSUNNY   72  54  53 CALM      30.01F
CROOKSTON      CLOUDY    73  46  38 SE7       30.00S
$$
  *****  WEATHER ACROSS CENTRAL AND WEST MINNESOTA  *****

CITY           SKY/WX    TMP DP  RH WIND       PRES   REMARKS
BEMIDJI        CLOUDY    68  46  44 E8        30.02F
PARK RAPIDS    CLOUDY    69  48  47 E9        30.00F
WADENA         CLOUDY    66  50  55 E10       29.99F
DETROIT LAKES  CLOUDY    66  46  48 E12G18    30.01S
MOORHEAD       CLOUDY    70  48  46 E13G20    29.98F
FERGUS FALLS   CLOUDY    68  50  52 SE12      29.97F
ELBOW LAKE     LGT RAIN  63  54  71 E12       29.97F
MORRIS MN      LGT RAIN  64  57  77 E14       29.95F
STAPLES        CLOUDY    66  48  52 SE8       29.99F
WHEATON        CLOUDY    63  52  67 E13       29.97F
$$
  *****  WEATHER ELSEWHERE ACROSS MINNESOTA  *****

CITY           SKY/WX    TMP DP  RH WIND       PRES   REMARKS
DULUTH         CLOUDY    69  43  38 E5        30.04F
INTRNTL FALLS  MOSUNNY   78  43  28 NE5       29.99F
ELY            PTSUNNY   75  37  25 SW7       30.02F
CLOQUET        CLOUDY    66  43  42 E5        30.03F
BRAINERD       CLOUDY    67  49  52 SE10      30.01F
HIBBING        CLOUDY    72  44  36 SE7       30.02F
ALEXANDRIA     CLOUDY    63  55  75 E9        29.99F
SAINT CLOUD    CLOUDY    63  56  78 E7        29.98F
MINNEAPOLIS    LGT RAIN  61  57  87 E13       29.97F
$$

  *****  WEATHER ACROSS SOUTH DAKOTA  *****

CITY           SKY/WX    TMP DP  RH WIND       PRES   REMARKS
SIOUX FALLS    LGT RAIN  61  60  97 E10       29.85F FOG
BROOKINGS      CLOUDY    61  57  88 E14       29.90F
WATERTOWN      LGT RAIN  59  56  89 E10       29.91F FOG
HURON          CLOUDY    62  58  86 E16       29.87F
SISSETON         N/A     62  56  80 E10       29.94F
ABERDEEN       CLOUDY    66  54  65 E10       29.92F
MITCHELL       LGT RAIN  63  60  90 E13       29.85F
PIERRE         CLOUDY    64  55  72 E17       29.87F
MOBRIDGE       CLOUDY    70  51  51 NE17      29.90F
RAPID CITY     LGT RAIN  55  53  93 NE12      29.91F FOG
$$

  *****  SOME WEATHER IN NEARBY STATES *****

CITY           SKY/WX    TMP DP  RH WIND       PRES   REMARKS
GLASGOW MT     MOSUNNY   74  39  28 SE13      29.98F
GREAT FALLS MT CLOUDY    58  43  57 NE8       30.06F
CHEYENNE WY    PTSUNNY   56  39  53 E8        29.88F
SCOTTSBLUFF NE MOSUNNY   64  50  60 NE7       29.85F
OMAHA NE       CLOUDY    67  62  84 SE3       29.81F
DES MOINES IA  CLOUDY    67  63  87 SE10      29.85F
DAVENPORT IA   LGT RAIN  67  63  87 E12       29.95F
CHICAGO IL     CLOUDY    70  52  52 E13       30.06F
EAU CLAIRE WI  LGT RAIN  61  57  87 SE7       30.03F
LA CROSSE WI   RAIN      61  58  90 E9        30.00F FOG
$$

  *****  SOME NATIONAL WEATHER *****

CITY           SKY/WX    TMP DP  RH WIND       PRES   REMARKS
LA GUARDIA NY  PTSUNNY   79  45  29 S16G24    30.25F
RALEIGH NC     MOSUNNY   80  54  40 VRB3      30.37F
ATLANTA GA     MOSUNNY   82  59  45 SE10G22   30.28F
NEW ORLEANS LA PTSUNNY   86  71  60 S22G31    30.06F HX  91
OKLAHOMA CITY  LGT RAIN  65  63  93 SE9       29.87F
ALBUQUERQUE NM PTSUNNY   66  33  29 VRB5      29.96F
SALT LAKE CITY MOSUNNY   60  45  57 VRB6      29.95F
LOS ANGELES CA MOSUNNY   65  51  60 W14       30.03S
BOISE ID       MOSUNNY   71  47  42 NW6       29.91F
SEATTLE WA     CLOUDY    59  49  69 S8        30.14S
$$

*** WEATHER ACROSS MANITOBA...SASKATCHEWAN AND ONTARIO ***
                ***ONTARIO***

CITY           SKY/WX    TMP DP  RH WIND       PRES   REMARKS
GERALDTON      MOSUNNY   77  46  33 W7        29.96F
THUNDER BAY    MOSUNNY   82  41  23 S21       29.97F
SIOUX LOOKOUT  MOSUNNY   77  43  29 W6        29.98F
TORONTO        PTSUNNY   81  41  24 W18G28    30.16F
BIG TROUT LK   SUNNY     68  34  28 W13G25    29.88F
PICKLE LAKE    MOSUNNY   70  23  17 NW7       29.97F
DRYDEN         PTSUNNY   77  39  25 W9G18     29.97F
KENORA         PTSUNNY   81  48  32 W6        29.99F
$$
                *** MANITOBA***

CITY           SKY/WX    TMP DP  RH WIND       PRES   REMARKS
BRANDON        MOSUNNY   79  41  25 W6        29.98F
DAUPHIN        SUNNY     75  46  35 SE7       29.98F
ISLAND LAKE    MOSUNNY   70  28  21 W7        29.96F
PILOT MOUND      N/A     77  36  22 E8          N/A
THE PAS        MOSUNNY   72  30  21 N7        29.97F
THOMPSON       MOSUNNY   75  32  20 W14G21    29.89F
WINNIPEG       PTSUNNY   79  48  34 SW6       29.97F
LYNN LAKE      SUNNY     75  25  15 NW14G21   29.91F
CHURCHILL      PTSUNNY   36  30  80 N20       30.01R
GILLAM         PTSUNNY   54  36  50 N12       29.94R
$$
                ***SASKATCHEWAN***

CITY           SKY/WX    TMP DP  RH WIND       PRES   REMARKS
ESTEVAN        MOSUNNY   77  36  22 NE7G17    29.99F
KINDERSLEY     PTSUNNY   79  28  15 SW9       30.02F
LLOYDMINSTER   MOSUNNY   77  36  22 NE8G17    30.00F
PRINCE ALBERT  NOT AVBL
REGINA         PTSUNNY   77  37  24 N7G18     29.99F


USA.gov is the U.S. government's official web portal to all federal, state and local government web resources and services.